Regional Weather Roundup
Issued by NWS Little Rock, AR

Home | Current Version | Previous Version | Graphics & Text | Print | Product List | Glossary On
Versions: 1 2 3 4 5 6 7 8 9 10 11 12 13 14 15 16 17 18 19 20 21 22 23 24 25 26 27 28 29 30 31 32 33 34 35 36 37 38 39 40 41 42 43 44 45 46 47 48 49 50
000
ASUS44 KLZK 250005
RWRLZK

WEATHER ROUNDUP FOR ARKANSAS
NATIONAL WEATHER SERVICE LITTLE ROCK AR
600 PM CST SAT JAN 24 2015

NOTE: "FAIR" INDICATES FEW OR NO CLOUDS BELOW 12,000 FEET WITH NO
SIGNIFICANT WEATHER AND/OR OBSTRUCTIONS TO VISIBILITY.

ARZ001-003-010-029-250100-
NORTHWEST ARKANSAS

CITY           SKY/WX    TMP DP  RH WIND       PRES   REMARKS
FAYETTEVILLE   CLEAR     49  31  49 SW8       29.91F
6HR MIN TEMP:  48; 6HR MAX TEMP:  55;

FORT SMITH     CLEAR     50  34  54 SW3       29.94S
6HR MIN TEMP:  47; 6HR MAX TEMP:  56;

HARRISON       CLEAR     49  30  48 W5        29.87F
6HR MIN TEMP:  49; 6HR MAX TEMP:  58;

BENTONVILLE    CLEAR     48  30  49 SW7       29.91R
6HR MIN TEMP:  46; 6HR MAX TEMP:  55;

ROGERS         CLEAR     50  32  50 SW10      29.89F
6HR MIN TEMP:  46; 6HR MAX TEMP:  56;

SILOAM SPGS    CLEAR     48  28  46 SW7       29.92S
6HR MIN TEMP:  48; 6HR MAX TEMP:  57;

HIGHFILL       CLEAR     50  32  50 SW10      29.89S
6HR MIN TEMP:  48; 6HR MAX TEMP:  57;

SPRINGDALE     PTCLDY    50  32  50 SW9       29.91S
$$

ARZ004-005-016-250100-
NORTH CENTRAL ARKANSAS

CITY           SKY/WX    TMP DP  RH WIND       PRES   REMARKS
BATESVILLE     CLEAR     54  28  37 SW6       29.89R
6HR MIN TEMP:  54; 6HR MAX TEMP:  61;

FLIPPIN        CLEAR     52  27  37 CALM      29.86S
6HR MIN TEMP:  52; 6HR MAX TEMP:  59;

MTN HOME       CLEAR     52  29  41 CALM      29.86F
6HR MIN TEMP:  47; 6HR MAX TEMP:  57;

$$

ARZ040-041-250100-
WEST CENTRAL ARKANSAS

CITY           SKY/WX    TMP DP  RH WIND       PRES   REMARKS
MENA           CLEAR     54  32  43 SW3       29.96S
MOUNT IDA      CLEAR     51  32  48 CALM      29.92S
6HR MIN TEMP:  51; 6HR MAX TEMP:  62;

$$

ARZ009-017-025-026-028-250100-
NORTHEAST ARKANSAS

CITY           SKY/WX    TMP DP  RH WIND       PRES   REMARKS
CORNING        FAIR      45  36  70 S10       29.87R
JONESBORO      CLEAR     46  34  62 S8        29.88S
6HR MIN TEMP:  46; 6HR MAX TEMP:  54;

NEWPORT        CLEAR     44  35  70 S9        29.91R
6HR MIN TEMP:  44; 6HR MAX TEMP:  60;

WALNUT RIDGE   CLEAR     52  32  46 SW6       29.87S
6HR MIN TEMP:  48; 6HR MAX TEMP:  59;

BLYTHEVILLE    CLEAR     45  36  70 SW9       29.90R
6HR MIN TEMP:  44; 6HR MAX TEMP:  53;

$$

ARZ022-023-033-042-044-250100-
CENTRAL ARKANSAS

CITY           SKY/WX    TMP DP  RH WIND       PRES   REMARKS
LITTLE ROCK    PTCLDY    54  28  36 SW6       29.93S
6HR MIN TEMP:  54; 6HR MAX TEMP:  63;

N LITTLE ROCK  PTCLDY    52  34  50 W3        29.93S
6HR MIN TEMP:  51; 6HR MAX TEMP:  59;

JACKSONVILLE   CLEAR     47  29  51 W5        29.91S
6HR MIN TEMP:  47; 6HR MAX TEMP:  60;

SEARCY         CLEAR     50  29  44 SW3       29.93R
6HR MIN TEMP:  50; 6HR MAX TEMP:  59;

HOT SPRINGS    CLEAR     54  31  41 CALM      29.95R
6HR MIN TEMP:  54; 6HR MAX TEMP:  62;

RUSSELLVILLE   CLEAR     53  33  46 SW8       29.92R
6HR MIN TEMP:  51; 6HR MAX TEMP:  59;

CLINTON        FAIR      46  32  57 CALM      29.91R HAZE
$$

ARZ036-250100-
EAST ARKANSAS

CITY           SKY/WX    TMP DP  RH WIND       PRES   REMARKS
WEST MEMPHIS   CLEAR     50  35  56 SW7       29.92R
6HR MIN TEMP:  49; 6HR MAX TEMP:  55;

$$

ARZ050-053-066-070-073-250100-
SOUTHWEST ARKANSAS

CITY           SKY/WX    TMP DP  RH WIND       PRES   REMARKS
ARKADELPHIA    FAIR      47  39  73 SW5       29.97S
6HR MIN TEMP:  48; 6HR MAX TEMP:  61;

CAMDEN         CLEAR     52  28  40 CALM      29.98S
TEXARKANA      CLEAR     52  34  50 W6        30.00R
6HR MIN TEMP:  52; 6HR MAX TEMP:  60;

EL DORADO      CLEAR     48  36  63 SW3       30.00R
6HR MIN TEMP:  46; 6HR MAX TEMP:  59;

DE QUEEN       CLEAR     52  35  52 SW9       29.97R
6HR MIN TEMP:  50; 6HR MAX TEMP:  61;

$$

ARZ056-057-069-250100-
SOUTHEAST ARKANSAS

CITY           SKY/WX    TMP DP  RH WIND       PRES   REMARKS
PINE BLUFF     CLEAR     50  31  48 S7        29.95S
6HR MIN TEMP:  50; 6HR MAX TEMP:  60;

STUTTGART      CLEAR     52  34  50 S10       29.94S
6HR MIN TEMP:  52; 6HR MAX TEMP:  61;

MONTICELLO     CLEAR     53  31  42 SW5       29.97S
6HR MIN TEMP:  50; 6HR MAX TEMP:  59;


$$




USA.gov is the U.S. government's official web portal to all federal, state and local government web resources and services.